SCP
-0 -0 0 0 0 0 0 0 0 0 0 0 0 0 0 0 0 0 0 0 0 0 0 0 0 0 0 0 0 0 0 0 0 0 0 0 0 0 0 0 0 -0 -0 -0 -0 0 -0
0 0 0 0 0 0 0 0 0 0 0 0 0 0 0 0 0 0 0 0 0 0 0 0 0 -0 0 0 0 0 0 0 0 0 0 0 0 0 0 0 0 0 0 -0 0 -0 -0
0 0 0 0 0 0 0 0 0 0 0 0 0 0 0 0 0 0 0 0 0 0 0 0 0 -0 0 0 0 0 0 0 0 0 0 0 0 0 0 0 0 0 -0 0 -0 0 -0
0 0 0 0 0 0 0 0 0 0 0 0 0 0 0 0 0 0 0 0 0 0 0 -0 -0 0 0 0 0 0 0 0 0 0 0 0 0 0 0 0 0 0 0 0 0 0 -0
0 0 0 0 0 0 0 0 0 0 0 0 0 0 0 0 0 0 0 0 0 0 0 0 0 0 0 0 0 0 0 0 0 0 0 0 0 0 0 0 0 0 0 0 0 0 -0
0 0 0 0 0 0 0 0 0 0 0 0 0 0 0 0 0 0 0 0 0 0 -0 -0 0 0 0 0 0 0 0 0 0 0 0 0 0 0 0 0 -0 0 0 0 0 0 0
0 0 0 0 0 0 0 0 0 0 0 0 -0 -0 -0 -0 -0 -0 0 -0 0 0 -0 0 0 0 0 0 0 0 0 0 0 0 0 0 0 0 0 0 0 0 0 0 0 0 0
0 0 0 0 0 0 0 0 0 0 0 -0 -0 -0 -0 -0 -0 -0 0 0 0 -0 0 0 0 -0 -0 -0 -0 0 0 0 0 0 0 0 0 0 0 0 0 0 0 -0 0 0 0
0 0 0 0 0 0 0 0 0 0 0 -0 -0 -0 -0 -0 -0 0 0 0 0 0 -0 0 0 0 0 0 0 0 0 0 0 0 0 0 0 0 0 0 0 0 0 0 0 0 0
0 0 0 0 0 0 0 0 0 -0 -0 0 -0 -0 -0 -0 0 0 0 0 0 0 0 0 -0 -0 -0 0 0 0 0 0 0 0 0 0 0 0 0 0 0 0 -0 0 0 0 0
0 0 0 0 0 0 0 0 -0 -0 0 0 -0 -0 0 0 0 0 0 0 0 0 -0 0 0 0 -0 0 0 0 0 0 0 0 0 0 0 0 0 0 0 -0 0 0 0 0 0
0 0 0 0 0 0 0 0 0 -0 -0 -0 -0 -0 -0 0 0 0 0 0 0 0 0 0 0 0 0 0 0 0 0 0 0 0 0 0 0 0 0 0 0 0 0 0 0 0 0
0 0 0 0 0 0 0 -0 -0 -0 -0 -0 -0 -0 -0 0 0 0 0 0 0 0 0 0 0 0 0 0 0 0 0 0 0 0 0 0 0 0 0 0 0 0 0 0 0 0 0
0 0 0 0 0 0 0 -0 -0 -0 -0 -0 -0 -0 0 0 0 0 0 0 0 0 0 -0 -0 0 0 0 0 0 0 0 0 0 0 0 0 0 0 0 0 0 0 0 0 0 0
0 0 0 0 0 0 0 0 -0 -0 -0 -0 -0 0 0 -0 0 0 0 0 0 0 0 -0 -0 0 0 0 0 0 0 0 0 -0 0 0 0 0 0 0 0 0 0 0 0 0 0
0 0 0 0 0 0 0 0 -0 -0 -0 -0 0 0 0 -0 0 0 0 0 0 0 0 -0 -0 0 0 0 0 0 0 0 0 0 0 0 0 0 0 0 0 0 0 0 0 0 0
0 0 0 0 0 0 0 0 -0 -0 0 -0 0 0 0 -0 0 0 0 0 0 0 0 0 0 0 0 0 0 0 0 0 0 0 0 0 0 0 0 0 0 0 0 0 0 0 0
0 0 0 0 0 0 0 0 -0 -0 -0 0 0 0 0 0 0 0 0 0 0 0 0 0 0 0 -0 0 0 0 0 0 0 0 0 0 0 0 0 0 0 0 0 0 0 0 0
0 0 0 0 0 0 0 0 0 0 0 0 0 0 0 0 0 0 0 0 0 0 0 0 0 0 0 -0 -0 0 -0 0 0 0 0 0 0 0 0 0 0 0 0 0 0 0 0
0 0 0 0 0 0 0 0 0 0 0 0 0 0 0 0 0 0 0 0 0 0 0 0 0 0 0 -0 -0 -0 -0 -0 -0 0 0 0 0 0 0 0 0 0 0 0 0 0 0
0 0 0 0 0 0 0 0 0 0 0 0 0 0 0 0 0 0 0 0 0 0 0 0 0 -0 -0 -0 -0 -0 -0 -0 -0 -0 0 0 0 0 0 0 0 0 0 0 0 0 0
0 0 0 0 0 0 0 0 0 0 0 0 0 0 0 0 0 0 0 0 0 0 0 0 0 0 0 0 -0 0 -0 -0 -0 0 -0 0 0 0 -0 0 0 0 0 0 0 0 0
0 0 0 0 0 0 0 0 0 0 0 0 0 0 0 0 0 0 0 0 0 0 0 0 0 0 0 0 -0 -0 -0 -0 -0 0 0 0 0 0 -0 0 0 0 0 0 0 0 0
0 0 0 0 0 0 0 0 0 0 0 0 0 0 0 0 0 0 0 0 0 0 0 0 0 0 -0 -0 -0 -0 -0 -0 0 0 0 0 0 0 -0 0 0 0 0 0 0 0 0
0 0 0 0 0 0 0 0 0 0 0 0 0 0 0 0 0 0 0 0 0 0 0 0 -0 -0 -0 0 -0 0 0 0 0 0 0 0 0 0 -0 0 0 0 0 0 0 0 0
0 0 0 0 0 0 0 0 0 0 0 0 0 0 0 0 0 0 0 0 0 0 0 0 -0 -0 0 -0 0 0 0 0 0 0 0 0 0 0 0 0 0 0 0 0 0 0 0
0 0 0 0 0 0 0 0 0 0 0 0 0 0 0 0 0 0 0 0 -0 0 -0 -0 -0 -0 0 0 0 0 0 0 0 0 0 0 0 0 0 0 0 0 0 0 0 0 0
0 0 0 0 0 0 0 0 0 0 0 0 0 0 0 0 0 0 0 0 0 -0 -0 0 -0 -0 0 0 0 0 0 0 0 0 0 0 0 0 0 0 0 0 0 0 0 0 0
0 0 0 0 0 0 0 0 0 0 0 0 0 0 0 0 0 0 -0 -0 -0 -0 0 0 0 -0 -0 0 0 0 0 0 0 0 0 0 0 0 0 0 0 0 0 0 0 0 0
Wind_Speed_500mb
36 36 36 36 37 39 41 41 41 43 43 45 47 49 51 53 56 56 56 52 48 44 43 45 42 40 30 15 41 28 30 21 6 15 41 37 30 17 10 10 14 19 31 48 56 43 55
38 39 40 40 41 42 43 45 46 46 47 49 50 52 54 56 57 59 56 52 48 43 42 43 42 39 23 13 14 6 10 14 14 18 30 44 24 34 14 17 10 25 44 36 26 58 39
41 42 43 44 44 43 43 45 46 47 48 50 52 53 54 54 55 57 54 49 43 44 43 39 39 35 32 53 23 11 5 20 12 17 22 43 42 21 1 14 25 26 17 20 20 28 41
46 47 47 47 47 47 47 47 47 48 48 49 50 52 53 52 53 55 49 42 41 44 38 32 30 31 27 28 20 35 25 24 22 18 19 21 38 38 28 27 23 12 4 6 6 20 37
47 49 50 49 49 49 49 49 49 50 50 51 52 53 52 51 51 54 38 40 35 33 27 24 21 17 30 16 19 13 28 27 17 21 24 24 27 40 36 3 9 3 9 8 11 24 37
49 50 53 54 54 53 53 52 52 52 51 51 52 54 55 50 48 41 33 38 26 6 16 14 15 11 27 11 7 9 14 33 26 21 27 25 16 6 5 8 13 10 7 3 7 7 6
49 52 54 55 55 54 53 53 53 52 51 51 53 53 55 50 44 26 38 34 45 7 55 40 36 28 47 30 32 19 10 20 31 26 14 15 6 12 18 10 11 11 7 6 11 11 12
53 55 55 55 55 54 54 54 53 52 51 50 52 52 53 45 38 15 30 32 32 35 36 50 68 67 79 70 35 38 24 7 14 15 6 5 14 16 13 12 13 17 11 13 13 6 11
54 55 56 57 58 58 56 55 56 53 51 51 51 51 53 44 20 11 12 25 17 31 13 33 23 28 45 34 41 57 32 12 9 13 12 14 16 17 17 19 20 17 14 7 11 5 14
55 58 59 61 59 58 58 58 57 55 54 52 49 48 47 52 9 23 3 23 14 38 9 15 11 12 15 17 11 43 49 39 10 20 12 13 25 19 30 28 17 19 15 18 16 8 10
57 61 63 64 63 62 59 58 57 56 53 51 47 45 46 37 40 25 20 26 17 12 7 7 7 9 7 23 1 5 42 37 14 13 14 19 20 26 27 35 26 18 17 18 16 9 13
59 63 65 66 65 63 64 61 58 55 54 51 48 44 48 29 30 14 23 27 12 9 9 10 12 17 14 12 8 7 20 28 18 13 11 17 14 18 27 31 26 11 10 3 6 11 5
61 63 66 67 65 63 62 63 59 55 54 54 49 45 33 19 4 18 27 24 9 6 13 18 14 18 16 14 16 11 7 15 11 10 10 3 26 10 12 15 19 10 11 4 3 2 13
62 65 68 68 66 62 62 62 59 55 53 53 49 43 23 5 15 20 31 9 4 7 9 13 15 17 11 29 17 17 15 6 7 8 3 12 15 16 10 17 17 16 20 12 14 8 11
62 67 69 68 65 60 60 60 58 51 51 53 46 26 10 20 18 16 13 7 9 9 12 17 13 15 15 27 19 24 12 8 14 5 9 10 16 13 13 15 18 9 7 20 11 3 6
63 68 68 67 62 58 58 57 57 50 46 48 50 19 17 17 11 11 9 7 7 11 11 13 12 11 14 21 19 23 11 6 23 29 34 12 9 15 23 6 13 17 12 4 5 12 10
64 69 66 62 57 57 56 55 54 49 46 43 28 12 16 7 9 8 5 11 9 23 26 13 9 8 11 12 9 12 11 12 43 33 37 9 8 32 10 12 11 1 6 4 9 11 12
62 68 65 61 54 55 55 52 47 45 47 38 17 4 15 6 3 0 3 4 19 18 16 16 12 13 8 14 11 10 7 16 50 45 19 10 2 8 19 13 8 10 14 17 11 10 4
61 69 65 59 52 51 52 47 42 37 41 44 29 14 10 2 6 7 11 8 13 14 12 7 10 10 9 8 11 9 8 42 45 33 19 15 9 10 15 10 15 7 6 9 8 10 14
60 67 65 57 48 48 49 45 41 28 27 29 14 7 13 14 18 7 11 9 12 17 8 8 6 3 8 8 3 14 20 17 52 43 44 28 5 9 9 9 8 13 26 14 14 10 12
60 66 64 57 46 45 46 43 37 24 18 18 10 6 14 8 11 18 11 9 10 10 6 5 2 5 5 6 10 11 10 17 26 21 30 12 8 4 16 20 16 20 25 26 7 19 21
60 66 65 56 45 44 44 40 29 19 10 7 10 10 14 22 22 13 13 10 11 27 7 8 8 7 2 9 13 26 10 8 9 10 16 13 9 1 8 8 12 23 22 18 18 13 9
60 65 63 53 43 42 42 35 24 14 6 2 3 2 8 12 14 6 6 12 20 18 13 22 1 6 6 12 9 24 27 25 21 12 13 9 10 7 7 19 18 8 12 8 11 12 18
60 66 65 51 41 40 40 30 19 11 4 5 7 9 5 7 6 6 13 17 9 12 6 21 6 7 7 21 23 24 31 32 28 38 26 17 9 7 7 7 5 9 25 9 16 17 8
58 64 60 48 38 37 36 25 15 9 4 6 8 3 4 4 10 12 23 11 18 31 6 7 14 27 24 11 7 12 7 4 18 37 29 37 6 8 4 3 13 11 24 16 12 11 31
58 64 59 43 34 35 32 19 11 6 4 5 6 6 5 2 6 12 13 12 4 8 12 16 43 17 11 4 6 5 9 13 11 8 25 27 27 3 4 3 4 9 32 55 12 7 31
58 62 54 37 31 33 25 16 8 4 1 1 2 6 8 5 5 4 5 10 13 9 6 18 39 9 8 5 7 10 8 11 10 15 11 11 7 9 5 5 4 30 42 14 13 9 31
58 59 45 31 29 28 20 12 6 4 2 2 1 3 11 7 25 9 4 14 23 13 5 17 13 11 4 5 4 6 6 7 6 9 5 8 5 6 5 4 9 54 30 14 14 24 41
56 55 37 27 27 19 17 8 4 5 3 3 5 4 6 18 19 36 23 6 14 18 28 8 10 4 13 4 3 4 3 7 12 7 14 10 9 5 9 7 32 30 23 41 47 38 42
Wind_Direction_500mb
15 10 7 3 359 354 350 348 346 345 344 345 344 342 339 336 334 330 327 325 321 316 314 315 317 319 316 290 265 263 256 291 268 203 212 207 220 203 219 228 264 248 271 281 292 222 174
9 5 1 358 354 349 346 342 341 341 341 340 340 338 336 333 331 327 324 320 318 313 307 305 309 312 305 263 323 284 238 222 265 248 218 209 218 214 280 255 196 273 292 294 273 177 152
8 3 359 355 351 347 342 340 338 337 337 336 336 335 333 330 328 325 323 320 316 307 298 296 298 300 283 264 281 228 268 219 258 253 225 217 215 222 126 301 296 280 311 326 200 153 138
7 3 359 356 351 347 343 340 337 336 335 333 332 332 332 331 331 328 327 326 316 302 301 293 291 290 265 283 264 225 234 217 242 249 247 213 207 231 242 265 313 348 349 320 220 170 148
9 5 2 358 354 349 344 340 337 336 335 333 332 332 332 333 334 332 338 337 329 308 303 293 281 275 269 265 239 240 214 233 216 227 259 243 225 232 248 221 357 5 247 252 321 192 155
10 7 4 0 357 352 346 342 340 338 335 334 333 333 332 335 337 334 350 346 345 0 353 315 243 288 260 249 187 357 242 223 228 233 243 238 215 171 29 127 209 205 225 327 239 175 129
8 6 4 0 357 352 348 345 342 339 336 336 335 335 332 337 339 340 356 17 16 336 313 275 261 253 273 281 281 253 315 226 224 230 202 242 137 207 226 174 231 275 275 338 295 181 102
4 2 360 358 356 351 351 349 344 341 336 336 336 336 332 337 337 338 21 34 12 332 301 287 277 263 257 265 295 254 253 300 202 207 153 254 212 214 224 247 234 250 263 271 315 53 89
2 359 357 356 355 351 350 350 346 343 338 339 338 336 332 335 339 328 7 17 351 347 289 299 277 252 254 234 229 250 240 233 238 201 180 189 224 198 222 238 242 246 213 203 211 113 66
360 357 356 354 351 350 349 348 346 344 341 339 336 334 334 332 348 327 333 337 334 351 17 278 247 244 203 199 230 242 241 225 222 203 186 223 225 205 212 236 199 245 209 226 240 138 201
359 357 355 352 348 347 348 348 343 342 341 337 333 333 332 333 319 331 333 319 348 20 352 323 330 316 213 176 266 277 213 185 204 201 143 225 174 205 219 225 217 249 191 214 210 139 121
357 354 353 351 347 346 347 347 340 341 339 336 331 334 327 325 318 12 353 348 355 49 259 325 18 331 8 278 247 279 174 189 206 227 253 212 247 194 215 232 238 220 241 292 163 115 146
353 352 351 349 346 346 347 345 341 341 340 337 334 335 325 317 46 23 357 350 57 160 329 1 341 329 335 310 30 349 161 156 178 141 240 285 250 233 212 213 247 188 96 259 334 154 210
349 348 350 348 345 345 347 344 342 342 341 335 338 337 323 128 80 25 2 46 193 291 22 348 323 316 46 17 10 14 10 343 318 119 358 185 261 214 217 181 201 199 168 161 188 174 205
347 348 348 347 344 343 344 343 342 343 342 336 343 348 95 105 72 27 350 53 225 359 338 343 349 30 343 1 358 9 14 299 23 188 185 191 245 269 224 208 156 235 143 192 179 165 96
346 347 346 345 344 343 342 344 343 343 345 342 343 0 114 111 62 360 69 255 282 352 18 26 41 39 1 347 10 8 344 356 354 10 3 285 251 222 263 269 237 169 188 129 344 180 246
346 346 345 344 343 345 345 349 346 342 347 346 348 349 145 136 274 308 155 234 291 20 40 40 19 357 32 2 316 334 315 328 17 340 341 306 220 255 139 181 227 2 185 114 134 151 181
344 344 344 344 345 347 348 352 350 346 348 352 7 352 134 204 14 243 169 283 13 1 46 40 71 48 48 2 348 333 290 344 354 359 330 309 283 276 227 224 191 151 229 176 178 259 208
343 344 345 343 346 347 347 348 354 355 349 354 346 304 12 243 41 329 319 4 4 14 48 52 37 44 29 13 344 303 335 343 342 356 4 325 338 350 343 356 16 12 332 203 148 113 207
342 343 344 343 346 345 344 343 353 356 347 353 358 350 336 30 49 29 6 349 353 26 88 119 154 46 22 339 219 291 308 312 335 336 340 328 241 151 230 242 220 289 308 308 192 140 169
341 344 343 342 345 344 341 342 347 1 345 358 20 330 12 331 341 331 336 356 355 342 13 221 207 193 131 283 315 283 328 331 334 329 353 28 246 265 275 262 267 270 285 292 250 226 183
341 343 344 344 342 342 341 343 347 348 356 28 5 5 346 307 316 338 0 10 7 342 281 259 166 241 207 217 209 286 327 30 278 324 4 349 273 120 286 271 284 273 274 276 281 209 170
339 341 345 342 341 340 341 344 339 340 359 113 1 301 348 304 333 26 344 354 340 350 317 29 165 118 298 262 299 288 272 262 270 293 337 296 344 355 308 314 324 324 300 259 285 249 173
338 342 343 341 340 338 342 343 332 329 333 280 311 336 15 288 351 12 355 323 353 342 243 308 131 113 290 296 290 283 272 261 253 265 207 264 352 279 251 348 183 214 27 26 315 282 334
337 341 341 340 337 338 342 343 331 320 326 271 268 240 167 269 320 314 351 311 342 352 2 290 37 320 309 350 12 315 319 218 229 243 222 213 158 278 78 240 274 16 2 337 338 312 8
337 341 340 341 336 341 345 342 332 336 336 283 261 227 219 242 223 317 305 319 334 338 340 312 346 324 220 117 175 249 232 211 177 242 197 186 203 163 19 1 355 284 322 312 211 314 354
339 339 339 342 336 344 348 344 337 5 335 302 209 199 240 235 289 334 291 310 324 356 274 296 339 334 31 217 182 222 262 231 162 164 157 139 142 154 194 269 38 336 328 327 73 287 342
338 340 341 340 339 350 356 3 40 59 101 140 263 223 246 262 296 276 223 266 300 289 236 301 335 331 333 291 200 240 238 329 5 2 28 121 120 191 144 158 11 346 10 62 300 22 36
338 342 341 337 342 356 6 23 90 122 115 204 235 260 268 261 272 296 286 289 294 305 268 286 259 193 228 329 274 271 293 359 337 55 352 61 16 337 52 61 309 334 30 40 45 49 41
Wind_Speed_850mb
36 36 36 36 37 39 41 41 41 43 43 45 47 49 51 53 56 56 56 52 48 44 43 45 42 40 30 15 41 28 30 21 6 15 41 37 30 17 10 10 14 19 31 48 56 43 55
38 39 40 40 41 42 43 45 46 46 47 49 50 52 54 56 57 59 56 52 48 43 42 43 42 39 23 13 14 6 10 14 14 18 30 44 24 34 14 17 10 25 44 36 26 58 39
41 42 43 44 44 43 43 45 46 47 48 50 52 53 54 54 55 57 54 49 43 44 43 39 39 35 32 53 23 11 5 20 12 17 22 43 42 21 1 14 25 26 17 20 20 28 41
46 47 47 47 47 47 47 47 47 48 48 49 50 52 53 52 53 55 49 42 41 44 38 32 30 31 27 28 20 35 25 24 22 18 19 21 38 38 28 27 23 12 4 6 6 20 37
47 49 50 49 49 49 49 49 49 50 50 51 52 53 52 51 51 54 38 40 35 33 27 24 21 17 30 16 19 13 28 27 17 21 24 24 27 40 36 3 9 3 9 8 11 24 37
49 50 53 54 54 53 53 52 52 52 51 51 52 54 55 50 48 41 33 38 26 6 16 14 15 11 27 11 7 9 14 33 26 21 27 25 16 6 5 8 13 10 7 3 7 7 6
49 52 54 55 55 54 53 53 53 52 51 51 53 53 55 50 44 26 38 34 45 7 55 40 36 28 47 30 32 19 10 20 31 26 14 15 6 12 18 10 11 11 7 6 11 11 12
53 55 55 55 55 54 54 54 53 52 51 50 52 52 53 45 38 15 30 32 32 35 36 50 68 67 79 70 35 38 24 7 14 15 6 5 14 16 13 12 13 17 11 13 13 6 11
54 55 56 57 58 58 56 55 56 53 51 51 51 51 53 44 20 11 12 25 17 31 13 33 23 28 45 34 41 57 32 12 9 13 12 14 16 17 17 19 20 17 14 7 11 5 14
55 58 59 61 59 58 58 58 57 55 54 52 49 48 47 52 9 23 3 23 14 38 9 15 11 12 15 17 11 43 49 39 10 20 12 13 25 19 30 28 17 19 15 18 16 8 10
57 61 63 64 63 62 59 58 57 56 53 51 47 45 46 37 40 25 20 26 17 12 7 7 7 9 7 23 1 5 42 37 14 13 14 19 20 26 27 35 26 18 17 18 16 9 13
59 63 65 66 65 63 64 61 58 55 54 51 48 44 48 29 30 14 23 27 12 9 9 10 12 17 14 12 8 7 20 28 18 13 11 17 14 18 27 31 26 11 10 3 6 11 5
61 63 66 67 65 63 62 63 59 55 54 54 49 45 33 19 4 18 27 24 9 6 13 18 14 18 16 14 16 11 7 15 11 10 10 3 26 10 12 15 19 10 11 4 3 2 13
62 65 68 68 66 62 62 62 59 55 53 53 49 43 23 5 15 20 31 9 4 7 9 13 15 17 11 29 17 17 15 6 7 8 3 12 15 16 10 17 17 16 20 12 14 8 11
62 67 69 68 65 60 60 60 58 51 51 53 46 26 10 20 18 16 13 7 9 9 12 17 13 15 15 27 19 24 12 8 14 5 9 10 16 13 13 15 18 9 7 20 11 3 6
63 68 68 67 62 58 58 57 57 50 46 48 50 19 17 17 11 11 9 7 7 11 11 13 12 11 14 21 19 23 11 6 23 29 34 12 9 15 23 6 13 17 12 4 5 12 10
64 69 66 62 57 57 56 55 54 49 46 43 28 12 16 7 9 8 5 11 9 23 26 13 9 8 11 12 9 12 11 12 43 33 37 9 8 32 10 12 11 1 6 4 9 11 12
62 68 65 61 54 55 55 52 47 45 47 38 17 4 15 6 3 0 3 4 19 18 16 16 12 13 8 14 11 10 7 16 50 45 19 10 2 8 19 13 8 10 14 17 11 10 4
61 69 65 59 52 51 52 47 42 37 41 44 29 14 10 2 6 7 11 8 13 14 12 7 10 10 9 8 11 9 8 42 45 33 19 15 9 10 15 10 15 7 6 9 8 10 14
60 67 65 57 48 48 49 45 41 28 27 29 14 7 13 14 18 7 11 9 12 17 8 8 6 3 8 8 3 14 20 17 52 43 44 28 5 9 9 9 8 13 26 14 14 10 12
60 66 64 57 46 45 46 43 37 24 18 18 10 6 14 8 11 18 11 9 10 10 6 5 2 5 5 6 10 11 10 17 26 21 30 12 8 4 16 20 16 20 25 26 7 19 21
60 66 65 56 45 44 44 40 29 19 10 7 10 10 14 22 22 13 13 10 11 27 7 8 8 7 2 9 13 26 10 8 9 10 16 13 9 1 8 8 12 23 22 18 18 13 9
60 65 63 53 43 42 42 35 24 14 6 2 3 2 8 12 14 6 6 12 20 18 13 22 1 6 6 12 9 24 27 25 21 12 13 9 10 7 7 19 18 8 12 8 11 12 18
60 66 65 51 41 40 40 30 19 11 4 5 7 9 5 7 6 6 13 17 9 12 6 21 6 7 7 21 23 24 31 32 28 38 26 17 9 7 7 7 5 9 25 9 16 17 8
58 64 60 48 38 37 36 25 15 9 4 6 8 3 4 4 10 12 23 11 18 31 6 7 14 27 24 11 7 12 7 4 18 37 29 37 6 8 4 3 13 11 24 16 12 11 31
58 64 59 43 34 35 32 19 11 6 4 5 6 6 5 2 6 12 13 12 4 8 12 16 43 17 11 4 6 5 9 13 11 8 25 27 27 3 4 3 4 9 32 55 12 7 31
58 62 54 37 31 33 25 16 8 4 1 1 2 6 8 5 5 4 5 10 13 9 6 18 39 9 8 5 7 10 8 11 10 15 11 11 7 9 5 5 4 30 42 14 13 9 31
58 59 45 31 29 28 20 12 6 4 2 2 1 3 11 7 25 9 4 14 23 13 5 17 13 11 4 5 4 6 6 7 6 9 5 8 5 6 5 4 9 54 30 14 14 24 41
56 55 37 27 27 19 17 8 4 5 3 3 5 4 6 18 19 36 23 6 14 18 28 8 10 4 13 4 3 4 3 7 12 7 14 10 9 5 9 7 32 30 23 41 47 38 42
Wind_Direction_850mb
15 10 7 3 359 354 350 348 346 345 344 345 344 342 339 336 334 330 327 325 321 316 314 315 317 319 316 290 265 263 256 291 268 203 212 207 220 203 219 228 264 248 271 281 292 222 174
9 5 1 358 354 349 346 342 341 341 341 340 340 338 336 333 331 327 324 320 318 313 307 305 309 312 305 263 323 284 238 222 265 248 218 209 218 214 280 255 196 273 292 294 273 177 152
8 3 359 355 351 347 342 340 338 337 337 336 336 335 333 330 328 325 323 320 316 307 298 296 298 300 283 264 281 228 268 219 258 253 225 217 215 222 126 301 296 280 311 326 200 153 138
7 3 359 356 351 347 343 340 337 336 335 333 332 332 332 331 331 328 327 326 316 302 301 293 291 290 265 283 264 225 234 217 242 249 247 213 207 231 242 265 313 348 349 320 220 170 148
9 5 2 358 354 349 344 340 337 336 335 333 332 332 332 333 334 332 338 337 329 308 303 293 281 275 269 265 239 240 214 233 216 227 259 243 225 232 248 221 357 5 247 252 321 192 155
10 7 4 0 357 352 346 342 340 338 335 334 333 333 332 335 337 334 350 346 345 0 353 315 243 288 260 249 187 357 242 223 228 233 243 238 215 171 29 127 209 205 225 327 239 175 129
8 6 4 0 357 352 348 345 342 339 336 336 335 335 332 337 339 340 356 17 16 336 313 275 261 253 273 281 281 253 315 226 224 230 202 242 137 207 226 174 231 275 275 338 295 181 102
4 2 360 358 356 351 351 349 344 341 336 336 336 336 332 337 337 338 21 34 12 332 301 287 277 263 257 265 295 254 253 300 202 207 153 254 212 214 224 247 234 250 263 271 315 53 89
2 359 357 356 355 351 350 350 346 343 338 339 338 336 332 335 339 328 7 17 351 347 289 299 277 252 254 234 229 250 240 233 238 201 180 189 224 198 222 238 242 246 213 203 211 113 66
360 357 356 354 351 350 349 348 346 344 341 339 336 334 334 332 348 327 333 337 334 351 17 278 247 244 203 199 230 242 241 225 222 203 186 223 225 205 212 236 199 245 209 226 240 138 201
359 357 355 352 348 347 348 348 343 342 341 337 333 333 332 333 319 331 333 319 348 20 352 323 330 316 213 176 266 277 213 185 204 201 143 225 174 205 219 225 217 249 191 214 210 139 121
357 354 353 351 347 346 347 347 340 341 339 336 331 334 327 325 318 12 353 348 355 49 259 325 18 331 8 278 247 279 174 189 206 227 253 212 247 194 215 232 238 220 241 292 163 115 146
353 352 351 349 346 346 347 345 341 341 340 337 334 335 325 317 46 23 357 350 57 160 329 1 341 329 335 310 30 349 161 156 178 141 240 285 250 233 212 213 247 188 96 259 334 154 210
349 348 350 348 345 345 347 344 342 342 341 335 338 337 323 128 80 25 2 46 193 291 22 348 323 316 46 17 10 14 10 343 318 119 358 185 261 214 217 181 201 199 168 161 188 174 205
347 348 348 347 344 343 344 343 342 343 342 336 343 348 95 105 72 27 350 53 225 359 338 343 349 30 343 1 358 9 14 299 23 188 185 191 245 269 224 208 156 235 143 192 179 165 96
346 347 346 345 344 343 342 344 343 343 345 342 343 0 114 111 62 360 69 255 282 352 18 26 41 39 1 347 10 8 344 356 354 10 3 285 251 222 263 269 237 169 188 129 344 180 246
346 346 345 344 343 345 345 349 346 342 347 346 348 349 145 136 274 308 155 234 291 20 40 40 19 357 32 2 316 334 315 328 17 340 341 306 220 255 139 181 227 2 185 114 134 151 181
344 344 344 344 345 347 348 352 350 346 348 352 7 352 134 204 14 243 169 283 13 1 46 40 71 48 48 2 348 333 290 344 354 359 330 309 283 276 227 224 191 151 229 176 178 259 208
343 344 345 343 346 347 347 348 354 355 349 354 346 304 12 243 41 329 319 4 4 14 48 52 37 44 29 13 344 303 335 343 342 356 4 325 338 350 343 356 16 12 332 203 148 113 207
342 343 344 343 346 345 344 343 353 356 347 353 358 350 336 30 49 29 6 349 353 26 88 119 154 46 22 339 219 291 308 312 335 336 340 328 241 151 230 242 220 289 308 308 192 140 169
341 344 343 342 345 344 341 342 347 1 345 358 20 330 12 331 341 331 336 356 355 342 13 221 207 193 131 283 315 283 328 331 334 329 353 28 246 265 275 262 267 270 285 292 250 226 183
341 343 344 344 342 342 341 343 347 348 356 28 5 5 346 307 316 338 0 10 7 342 281 259 166 241 207 217 209 286 327 30 278 324 4 349 273 120 286 271 284 273 274 276 281 209 170
339 341 345 342 341 340 341 344 339 340 359 113 1 301 348 304 333 26 344 354 340 350 317 29 165 118 298 262 299 288 272 262 270 293 337 296 344 355 308 314 324 324 300 259 285 249 173
338 342 343 341 340 338 342 343 332 329 333 280 311 336 15 288 351 12 355 323 353 342 243 308 131 113 290 296 290 283 272 261 253 265 207 264 352 279 251 348 183 214 27 26 315 282 334
337 341 341 340 337 338 342 343 331 320 326 271 268 240 167 269 320 314 351 311 342 352 2 290 37 320 309 350 12 315 319 218 229 243 222 213 158 278 78 240 274 16 2 337 338 312 8
337 341 340 341 336 341 345 342 332 336 336 283 261 227 219 242 223 317 305 319 334 338 340 312 346 324 220 117 175 249 232 211 177 242 197 186 203 163 19 1 355 284 322 312 211 314 354
339 339 339 342 336 344 348 344 337 5 335 302 209 199 240 235 289 334 291 310 324 356 274 296 339 334 31 217 182 222 262 231 162 164 157 139 142 154 194 269 38 336 328 327 73 287 342
338 340 341 340 339 350 356 3 40 59 101 140 263 223 246 262 296 276 223 266 300 289 236 301 335 331 333 291 200 240 238 329 5 2 28 121 120 191 144 158 11 346 10 62 300 22 36
338 342 341 337 342 356 6 23 90 122 115 204 235 260 268 261 272 296 286 289 294 305 268 286 259 193 228 329 274 271 293 359 337 55 352 61 16 337 52 61 309 334 30 40 45 49 41